EW7948 Weather Reports


time (UTC)temp
F
wind
direction
speed
knots
gust
knots
rain 1hr
in
rain 24hr
in
rain mn
in
humidity
%
barometer
mb
20260509053056 70 313 0.9 3.5 0.00 0.00 0.00 21 1004.6
20260509051551 71 336 0.0 1.7 0.00 0.00 0.00 22 1004.4
20260509050044 72 336 0.9 3.5 0.00 0.00 0.00 21 1004.5
20260509044644 73 336 0.0 3.5 0.00 0.00 0.00 19 1004.6
20260509043043 75 335 1.7 7.8 0.00 0.00 0.00 20 1004.5
20260509041542 76 312 4.3 8.7 0.00 0.00 0.00 20 1004.4
20260509040043 76 334 6.1 11.3 0.00 0.00 0.00 20 1004.1
20260509034542 76 330 3.5 5.2 0.00 0.00 0.00 19 1003.9
20260509033039 76 335 3.5 7.8 0.00 0.00 0.00 19 1003.6
20260509031539 78 342 2.6 7.0 0.00 0.00 0.00 18 1003.3
20260509030039 78 347 6.1 11.3 0.00 0.00 0.00 17 1003.0
20260509024538 79 345 7.0 9.6 0.00 0.00 0.00 17 1002.7
20260509023039 80 334 7.8 12.2 0.00 0.00 0.00 16 1002.3
20260509021608 81 331 3.5 7.0 0.00 0.00 0.00 14 1002.1
20260509020005 82 342 3.5 10.4 0.00 0.00 0.00 13 1001.9
20260509014533 83 323 4.3 10.4 0.00 0.00 0.00 13 1001.7
20260509013016 84 337 5.2 13.0 0.00 0.00 0.00 13 1001.5
20260509011516 85 360 3.5 14.8 0.00 0.00 0.00 13 1001.6
20260509010023 85 293 3.5 12.2 0.00 0.00 0.00 13 1001.5
20260509004528 86 336 3.5 9.6 0.00 0.00 0.00 13 1001.5
20260509003013 86 13 4.3 7.8 0.00 0.00 0.00 12 1001.6
20260509001512 86 9 4.3 12.2 0.00 0.00 0.00 12 1001.6
20260509000009 87 319 6.1 8.7 0.00 0.00 0.00 13 1001.7
20260508233109 86 5 6.1 11.3 0.00 0.00 0.00 12 1001.9
20260508231510 85 330 3.5 9.6 0.00 0.00 0.00 13 1002.1
20260508230112 84 340 1.7 7.8 0.00 0.00 0.00 13 1002.2
20260508224529 84 340 7.0 13.9 0.00 0.00 0.00 13 1002.3
20260508223036 85 336 7.8 13.9 0.00 0.00 0.00 12 1002.4
20260508221522 86 40 0.9 12.2 0.00 0.00 0.00 11 1002.7
20260508220024 86 342 1.7 8.7 0.00 0.00 0.00 12 1002.9
20260508214526 85 227 2.6 12.2 0.00 0.00 0.00 13 1003.2
20260508213000 87 360 7.0 12.2 0.00 0.00 0.00 12 1003.4
20260508211602 87 290 1.7 7.0 0.00 0.00 0.00 12 1003.5
20260508210009 86 295 3.5 12.2 0.00 0.00 0.00 14 1003.9
20260508204524 85 312 5.2 11.3 0.00 0.00 0.00 13 1004.1
20260508203027 85 9 5.2 11.3 0.00 0.00 0.00 14 1004.6
20260508201504 85 196 4.3 14.8 0.00 0.00 0.00 14 1004.8
20260508200002 85 263 3.5 11.3 0.00 0.00 0.00 16 1005.1
20260508194600 84 241 3.5 11.3 0.00 0.00 0.00 15 1005.3
20260508193157 84 262 2.6 10.4 0.00 0.00 0.00 16 1005.5
20260508191521 83 277 1.7 6.1 0.00 0.00 0.00 16 1005.8
20260508190020 82 344 7.8 11.3 0.00 0.00 0.00 15 1006.2
20260508184525 81 355 7.8 14.8 0.00 0.00 0.00 16 1006.1
20260508183009 80 60 1.7 7.8 0.00 0.00 0.00 17 1006.4
20260508181553 79 76 2.6 7.8 0.00 0.00 0.00 17 1006.8
20260508180044 80 110 0.9 3.5 0.00 0.00 0.00 18 1007.2
20260508174545 79 134 1.7 4.3 0.00 0.00 0.00 18 1007.3
20260508173044 80 134 1.7 3.5 0.00 0.00 0.00 19 1007.6
20260508171539 78 132 0.9 4.3 0.00 0.00 0.00 19 1007.8
20260508170034 75 132 0.9 3.5 0.00 0.00 0.00 21 1008.0
20260508164532 74 128 0.0 3.5 0.00 0.00 0.00 22 1008.2
20260508163035 72 128 0.9 3.5 0.00 0.00 0.00 23 1008.3
20260508161532 71 128 1.7 3.5 0.00 0.00 0.00 25 1008.4
20260508160025 70 98 0.0 0.0 0.00 0.00 0.00 26 1008.6
20260508154520 67 96 0.0 0.0 0.00 0.00 0.00 27 1008.7
20260508153008 65 96 0.0 0.0 0.00 0.00 0.00 28 1008.8
20260508151602 63 96 0.0 0.0 0.00 0.00 0.00 33 1009.0
20260508150055 60 96 0.0 0.0 0.00 0.00 0.00 37 1009.1
20260508144551 59 96 0.0 0.0 0.00 0.00 0.00 39 1009.2
20260508143054 57 96 0.0 0.0 0.00 0.00 0.00 41 1009.1
20260508141549 56 96 0.0 0.0 0.00 0.00 0.00 43 1009.1
20260508140047 53 96 0.9 3.5 0.00 0.00 0.00 40 1009.0
20260508134546 51 89 0.9 2.6 0.00 0.00 0.00 48 1009.0
20260508133045 50 89 0.0 0.9 0.00 0.00 0.00 47 1008.8
20260508131545 49 89 0.0 5.2 0.00 0.00 0.00 50 1008.8
20260508130041 47 88 3.5 6.1 0.00 0.00 0.00 49 1008.4
20260508124540 46 78 0.0 0.0 0.00 0.00 0.00 48 1008.5
20260508123038 46 78 0.0 1.7 0.00 0.00 0.00 49 1008.3
20260508121540 46 78 0.0 0.9 0.00 0.00 0.00 47 1008.2
20260508120039 47 78 0.0 0.9 0.00 0.00 0.00 48 1007.8
20260508114530 47 78 0.9 2.6 0.00 0.00 0.00 53 1007.6
20260508113030 48 78 0.0 0.0 0.00 0.00 0.00 54 1007.6
20260508111530 48 78 0.0 0.0 0.00 0.00 0.00 52 1007.6
20260508110024 48 78 0.0 0.0 0.00 0.00 0.00 49 1007.7
20260508104523 49 78 0.0 0.0 0.00 0.00 0.00 45 1007.8
20260508103025 49 78 0.9 2.6 0.00 0.00 0.00 46 1007.8
20260508101519 49 78 0.0 2.6 0.00 0.00 0.00 44 1007.7
20260508100016 49 78 0.0 1.7 0.00 0.00 0.00 47 1007.7
20260508094514 49 78 0.0 1.7 0.00 0.00 0.00 45 1007.6
20260508093011 50 80 2.6 5.2 0.00 0.00 0.00 46 1007.6
20260508091509 51 85 0.9 1.7 0.00 0.00 0.00 43 1007.3
20260508090008 51 85 0.0 1.7 0.00 0.00 0.00 44 1007.3
20260508084506 51 85 0.0 0.9 0.00 0.00 0.00 36 1007.3
20260508083004 52 85 0.0 1.7 0.00 0.00 0.00 39 1007.5
20260508081504 52 85 0.9 2.6 0.00 0.00 0.00 38 1007.5
20260508080104 53 85 0.0 0.0 0.00 0.00 0.00 48 1007.3
20260508074605 53 85 1.7 3.5 0.00 0.00 0.00 48 1007.4
20260508073057 54 86 0.0 0.9 0.00 0.00 0.00 50 1007.3
20260508071553 55 86 0.0 1.7 0.00 0.00 0.00 46 1007.6
20260508070051 55 86 1.7 2.6 0.00 0.00 0.00 41 1007.5
20260508064551 55 86 0.0 3.5 0.00 0.00 0.00 43 1007.6
20260508063047 56 87 1.7 2.6 0.00 0.00 0.00 40 1007.3
20260508061542 57 87 0.0 0.0 0.00 0.00 0.00 34 1007.4
20260508060038 58 87 1.7 2.6 0.00 0.00 0.00 29 1007.4
20260508054543 59 87 0.0 1.7 0.00 0.00 0.00 32 1007.2